sat.trackr.live / text

‹ back to catalog

STARLINK-37211

NORAD 68620 · 2026-073U

PAYLOAD ACTIVE UNKNOWN

§ Identity

Operator
Country
US
Launch date
2026-04-07
Launch site
AFWTR
Launch vehicle
Mass (kg)
RCS (m²)

Purposes: comms

External: N2YO · Heavens-Above · Gunter

§ Orbital elements

Epoch: 2026-05-25T04:00:03.998880Z

Period
92.05 min
Inclination
97.2846°
Eccentricity
0.0001850
Mean motion
15.64411771 rev/d
Perigee alt
373.7 km
Apogee alt
376.2 km
Semi-major
6,753.1 km
B*
-2.2944e-2
RAAN
344.7410°
Arg perigee
76.9618°
Mean anomaly
65.0120°
Rev number
600

§ Raw data

STARLINK-372111 68620U 26073U   26145.16671295 -.01940207  00000+0 -22944-1 0  99912 68620  97.2846 344.7410 0001850  76.9618  65.0120 15.64411771  6001

JSON: /api/v1/satellites/68620 · /tle

For live sub-satellite position, see the globe view (requires WebGL).

§ Visibility from observer

Set your observer location to see the next 7 days of passes ≥ 10°. The values pass through the URL so the page stays shareable.

No JS? Fill the form by hand. The geolocation button needs JavaScript.